Location: Canazei
(46.4667°N, 11.7667°E)
Time: 06:26:22
(UTC+00:00)

COSMOS 2406 - Pass Details

Date: 21 April 2021
Orbit: 845 x 862 km, 71.0° (Epoch: 15 May)

Event Time Altitude Azimuth Distance (km) Brightness Sun altitude
Rises 23:59:23 0° 336° (NNW) 3,420 7.1 -30.7°
Reaches altitude 10° 00:01:56 10° 342° (NNW) 2,479 6.3 -30.6°
Maximum altitude 00:07:27 50° 57° (ENE) 1,067 3.9 -30.3°
Enters shadow 00:08:12 47° 82° (E) 1,108 3.8 -30.3°
